Flag for Canada Weather past 2 weeks in Fort Liard, Northwest Territories, Canada

Now
63 °F

Scattered clouds.


Feels Like: 63 °F
Forecast: 47 / 68 °F
Wind: 7 mph from East

Location: Fort Nelson

Current Time: Aug 30, 2015 at 5:20:31 PM

Latest Report: Aug 30, 2015 at 5:00 PM


Visibility: 30 mi

Pressure: 29.16 "Hg

Humidity: 68%

Dew point: 52 °F

Location of Fort LiardLocation

Historic Weather in Fort Liard — Graph

°F

Fort Liard temperature yesterday

Maximum temperature yesterday: 70 °F (at 5:00 PM)
Minimum temperature yesterday: 48 °F (at 7:00 AM)
Average temperature yesterday: 58 °F

Past Weeks' High & Low Weather Summary

 TemperatureHumidityPressure
High77 °F (Aug 18, 6:00 PM)100% (Aug 16, 7:00 AM)30.22 "Hg (Aug 16, 7:00 AM)
Low34 °F (Aug 22, 6:00 AM)27% (Aug 16, 5:00 PM)29.12 "Hg (Aug 30, 9:00 AM)
Average56 °F72%29.86 "Hg
* Reported Aug 15 4:00 PM — Aug 30 4:00 PM, Fort Liard, Weather by CustomWeather, © 2015

Note: Actual official high and low records may vary slightly from our data, if they occured in-between our weather recording intervals... More about our weather records

Advertising

Fort Liard weather history for previous 24 hours

 ConditionsComfort  
Time TempWeatherWind HumidityBarometerVisibility
4:00 PM
Sun, Aug 30
61 °FBroken clouds.6 mph77%29.18 "Hg30 mi
3:00 PM55 °FBroken clouds.6 mph100%29.19 "Hg30 mi
2:53 PM55 °FPartly sunny.7 mph94%29.19 "Hg30 mi
2:00 PM54 °FLight rain. Partly sunny.8 mph94%29.18 "Hg20 mi
1:00 PM55 °FBroken clouds.16 mph88%29.17 "Hg30 mi
12:00 PM59 °FBroken clouds.7 mph77%29.14 "Hg30 mi
11:00 AM57 °FBroken clouds.5 mph77%29.14 "Hg30 mi
10:00 AM54 °FBroken clouds.2 mph88%29.13 "Hg30 mi
9:00 AM52 °FLight fog.3 mph94%29.12 "Hg30 mi
8:00 AM50 °FFog.2 mph100%29.13 "Hg10 mi
7:00 AM50 °FFog.No wind100%29.13 "Hg10 mi
6:00 AM52 °FOvercast.8 mph94%29.13 "Hg10 mi
5:00 AM52 °FOvercast.3 mph100%29.14 "Hg10 mi
4:00 AM54 °FOvercast.7 mph100%29.14 "Hg10 mi
3:00 AM54 °FOvercast.7 mph100%29.17 "Hg10 mi
2:00 AM55 °FOvercast.5 mph94%29.19 "Hg10 mi
1:00 AM55 °FLight rain. Overcast.5 mph94%29.22 "Hg10 mi
12:00 AM55 °FLight rain. Overcast.8 mph94%29.25 "Hg15 mi
11:00 PM
Sat, Aug 29
57 °FLight rain. Overcast.8 mph88%29.28 "Hg15 mi
10:00 PM59 °FLight rain. Overcast.5 mph77%29.31 "Hg15 mi
9:00 PM64 °FLight rain. Overcast.7 mph60%29.32 "Hg15 mi
8:00 PM68 °FMore clouds than sun.9 mph46%29.31 "Hg20 mi
7:00 PM70 °FBroken clouds.10 mph43%29.33 "Hg20 mi
6:00 PM70 °FPartly sunny.9 mph43%29.36 "Hg30 mi
5:00 PM70 °FPartly sunny.7 mph46%29.39 "Hg30 mi
Weather by CustomWeather, © 2015

See weather overviewHow to use our weather pages